Regional Weather Roundup
Issued by NWS

Home | Current Version | Previous Version | Text Only | Print | Product List | Glossary On
Versions: 1 2 3 4 5 6 7 8 9 10 11 12 13 14 15 16 17 18 19 20 21 22 23 24 25 26 27 28 29 30 31 32 33 34 35 36 37 38 39 40 41 42 43 44 45 46 47 48 49 50
150
ASUS43 KDMX 251806
RWRIA

WEATHER ROUNDUP FOR IOWA
NATIONAL WEATHER SERVICE DES MOINES IA
100 PM CDT THU MAY 25 2017

NOTE: "FAIR" INDICATES FEW OR NO CLOUDS BELOW 12,000 FEET WITH NO
SIGNIFICANT WEATHER AND/OR OBSTRUCTIONS TO VISIBILITY.

* - THESE STATIONS ARE NOT NWS STATIONS...THUS NOT UNDER NWS
QUALITY CONTROL.  THEY ALSO DO NOT REPORT WEATHER SUCH
AS PRECIPITATION OR FOG.

IAZ001>003-012>014-020>022-031>034-043>046-251900-
   NORTHWEST IOWA

CITY           SKY/WX    TMP DP  RH WIND       PRES   REMARKS
CARROLL *      SUNNY     70  50  49 SE13G22   29.64S
CHEROKEE *     SUNNY     68  49  50 S20       29.60F
DENISON *      SUNNY     70  48  46 S14G23    29.63F
LE MARS *      SUNNY     70  50  49 S20G31    29.57F
ORANGE CITY *  SUNNY     70  48  46 S18G28    29.57F
SHELDON *      SUNNY     70  48  46 S24G31    29.56F
SIOUX CITY     SUNNY     71  53  52 S18G28    29.57F
6HR MIN TEMP:  50; 6HR MAX TEMP:  71; 6HR PCP: TRACE;

SPENCER        SUNNY     69  49  48 S22G29    29.61F
6HR MIN TEMP:  50; 6HR MAX TEMP:  69; 6HR PCP: TRACE;

STORM LAKE *   SUNNY     70  46  43 S25G31    29.61F
$$

IAZ055>058-069>071-079>083-090>094-251900-
   SOUTHWEST IOWA

CITY           SKY/WX    TMP DP  RH WIND       PRES   REMARKS
ATLANTIC *     SUNNY     68  48  49 S16       29.65S
AUDUBON *      SUNNY     68  52  56 S13       29.65F
CLARINDA *     SUNNY     70  50  49 S12G22    29.68S
COUNCIL BLFS * SUNNY     70  50  49 S17G25    29.62F
CRESTON *      SUNNY     66  50  55 S13G21    29.68F
HARLAN  *      SUNNY     70  46  43 S17G26    29.66S
LAMONI         SUNNY     68  50  52 SE9       29.69F
6HR MIN TEMP:  49; 6HR MAX TEMP:  68;

RED OAK *      SUNNY     72  50  46 S18G25    29.64F
SHENANDOAH *   SUNNY     72  46  40 S15G23    29.65R
$$

IAZ047>049-059>061-072>074-084-251900-
   CENTRAL IOWA

CITY           SKY/WX    TMP DP  RH WIND       PRES   REMARKS
AMES           MOSUNNY   67  52  58 SE8       29.67F
6HR MIN TEMP:  46; 6HR MAX TEMP:  67;

ANKENY *       MOSUNNY   68  50  52 SE9G16    29.69F
BOONE *        SUNNY     66  52  59 S10G18    29.67F
CHARITON *     MOSUNNY   68  50  52 SW7       29.69F
DES MOINES     MOSUNNY   69  50  50 S9        29.68F
6HR MIN TEMP:  52; 6HR MAX TEMP:  69;

GRINNELL*      SUNNY     66  47  51 S6        29.71F
KNOXVILLE *    SUNNY     68  45  42 VRB7      29.68F
MARSHALLTOWN   SUNNY     66  46  48 CALM      29.69F
6HR MIN TEMP:  46; 6HR MAX TEMP:  66;

NEWTON *       SUNNY     66  46  48 VRB7      29.69F
PERRY *          N/A     69  49  48 SE14      29.66F
$$

IAZ004>006-015-016-023>025-035-036-251900-
   NORTH CENTRAL IOWA

CITY           SKY/WX    TMP DP  RH WIND       PRES   REMARKS
ALGONA *       MOSUNNY   64  50  59 S14       29.65S
CLARION *      SUNNY     68  48  49 S13G20    29.66F
ESTHERVILLE    SUNNY     65  51  60 S17G28    29.62F
6HR MIN TEMP:  47; 6HR MAX TEMP:  65;

FORT DODGE *   SUNNY     64  46  52 SE12G17   29.66F
MASON CITY     MOSUNNY   65  49  56 SE12G18   29.68F
6HR MIN TEMP:  47; 6HR MAX TEMP:  66;

FOREST CITY *    N/A     68  43  40 S9        29.67F
WEBSTER CITY * MOSUNNY   68  48  49 S9G17     29.65S
$$

IAZ007>011-017>019-026>030-037>042-050>054-066-251900-
   NORTHEAST IOWA

CITY           SKY/WX    TMP DP  RH WIND       PRES   REMARKS
CEDAR RAPIDS   MOSUNNY   65  53  65 W7        29.70S
6HR MIN TEMP:  47; 6HR MAX TEMP:  66;

CHARLES CITY * MOSUNNY   64  52  63 SE6       29.69F
CLINTON *      CLOUDY    60  54  80 VRB5      29.71S
DUBUQUE        MOSUNNY   62  54  74 N5        29.70F
6HR MIN TEMP:  52; 6HR MAX TEMP:  62;

MONTICELLO *   SUNNY     66  54  63 VRB5      29.69S
OELWEIN *      SUNNY     63  54  72 CALM      29.70F
WATERLOO       MOSUNNY   66  50  56 CALM      29.68F
6HR MIN TEMP:  45; 6HR MAX TEMP:  66;

$$

IAZ064-065-067-068-078-251900-
   EAST CENTRAL IOWA

CITY           SKY/WX    TMP DP  RH WIND       PRES   REMARKS
DAVENPORT      PTSUNNY   66  53  63 VRB6      29.70S
6HR MIN TEMP:  53; 6HR MAX TEMP:  67;

IOWA CITY      MOSUNNY   68  54  60 W5        29.71S
6HR MIN TEMP:  51; 6HR MAX TEMP:  68;

MT. PLEASANT * SUNNY     67  51  56 NW3       29.71S
MUSCATINE *    SUNNY     68  50  52 CALM      29.70S
QUAD CITIES    MOSUNNY   68  54  60 NE7       29.69S
6HR MIN TEMP:  55; 6HR MAX TEMP:  69;

$$

IAZ062-063-075>077-085>089-095>099-251900-
   SOUTHEAST IOWA

CITY           SKY/WX    TMP DP  RH WIND       PRES   REMARKS
BURLINGTON     SUNNY     69  55  60 MISG      29.70S
6HR MIN TEMP:  50; 6HR MAX TEMP:  69;

FAIRFIELD *    MOSUNNY   66  52  59 CALM      29.70F
FORT MADISON * MOSUNNY   68  55  64 NW6       29.72S
KEOKUK *       MOSUNNY   68  54  60 SW8       29.71S
OSKALOOSA *      N/A     67  47  48 CALM      29.70F
CENTERVILLE *    N/A     68  46  45 CALM      29.73F
OTTUMWA        SUNNY     68  47  46 W6        29.70F
6HR MIN TEMP:  47; 6HR MAX TEMP:  68;

WASHINGTON *   SUNNY     66  52  59 CALM      29.71F
$$

ABBREVIATIONS USED IN REMARKS
   TC - TEMPERATURES IN CELSIUS
  WCI - WIND CHILL INDEX
   HX - HEAT INDEX
  VSB - VISIBILITY
$$





USA.gov is the U.S. government's official web portal to all federal, state and local government web resources and services.